Home > Weather > Visalia > Past weeks

Flag for U.S.A. Weather for the Past 2 Weeks in Visalia, California, U.S.A.

Now
45 °F

Fog.


Feels Like: 45 °F
Forecast: 44 / 70 °F
Wind: No wind

Location: Visalia Municipal

Current Time: Feb 12, 2016 at 4:58:58 AM

Latest Report: Feb 12, 2016 at 4:04 AM


Visibility: 1 mi

Pressure: 30.18 "Hg

Humidity: 100%

Dew point: 45 °F

Location of VisaliaLocation

Historic Weather in Visalia — Graph

°F

Visalia Temperature Yesterday

Maximum temperature yesterday: 71 °F (at 2:56 PM)
Minimum temperature yesterday: 41 °F (at 6:56 AM)
Average temperature yesterday: 56 °F

High & Low Weather Summary for the Past Weeks

 TemperatureHumidityPressure
High74 °F (Feb 9, 1:56 PM)100% (Jan 28, 4:56 AM)30.50 "Hg (Jan 28, 4:56 AM)
Low30 °F (Feb 3, 6:56 AM)38% (Feb 9, 1:56 PM)29.71 "Hg (Jan 31, 12:56 PM)
Average49 °F83%30.25 "Hg
* Reported Jan 28 4:00 AM — Feb 12 4:00 AM, Visalia, Weather by CustomWeather, © 2016

Note: Actual official high and low records may vary slightly from our data, if they occured in-between our weather recording intervals... More about our weather records

Advertising

Visalia Weather History for the Previous 24 Hours

 ConditionsComfort  
Time TempWeatherWind HumidityBarometerVisibility
4:00 AM
Fri, Feb 12
45 °FFog.3 mph100%30.18 "Hg1 mi
2:56 AM46 °FFog.No wind96%30.20 "Hg2 mi
2:04 AM46 °FFog.No wind100%30.18 "Hg1 mi
12:56 AM50 °FFog.No wind96%30.20 "Hg2 mi
11:56 PM
Thu, Feb 11
51 °FFog.5 mph96%30.21 "Hg1 mi
10:56 PM52 °FFog.3 mph97%30.20 "Hg1 mi
9:56 PM52 °FFog.5 mph97%30.20 "Hg2 mi
8:56 PM54 °FFog.No wind90%30.19 "Hg3 mi
7:56 PM56 °FFog.No wind90%30.18 "Hg4 mi
6:56 PM61 °FClear.No wind78%30.17 "Hg6 mi
5:56 PM63 °FClear.3 mph75%30.16 "Hg5 mi
4:56 PM69 °FSunny.No wind63%30.15 "Hg6 mi
3:56 PM70 °FSunny.6 mph61%30.15 "Hg6 mi
2:56 PM71 °FSunny.7 mph63%30.15 "Hg5 mi
1:56 PM70 °FSunny.3 mph59%30.14 "Hg6 mi
12:56 PM69 °FSunny.No wind61%30.16 "Hg6 mi
11:56 AM66 °FSunny.No wind73%30.19 "Hg5 mi
10:56 AM62 °FSunny.5 mph75%30.21 "Hg5 mi
9:56 AM56 °FFog.6 mph87%30.23 "Hg5 mi
8:56 AM50 °FFog.3 mph96%30.23 "Hg4 mi
7:56 AM46 °FFog.5 mph96%30.22 "Hg2 mi
6:56 AM41 °FFog.5 mph100%30.21 "Hg0 mi
5:56 AM42 °FFog.No wind100%30.21 "Hg0 mi
4:56 AM44 °FFog.3 mph96%30.20 "Hg0 mi
Weather by CustomWeather, © 2016

See weather overviewHow to use our weather pages